Weather History for Fort Campbell, KY

Change the Weather History Date:

Saturday, February 2, 2013

  Actual Average Record
Temperature  
Mean Temperature 33 °F -  
Max Temperature 41 °F 46 °F 68 °F (2003)
Min Temperature 25 °F 29 °F 17 °F (2000)
Degree Days  
Heating Degree Days 32    
Moisture  
Dew Point 25 °F    
Average Humidity 74    
Maximum Humidity 99    
Minimum Humidity 50    
Precipitation  
Precipitation 0.00 in - - ()
Sea Level Pressure  
Sea Level Pressure 30.18 in    
Wind  
Wind Speed 8 mph (SSW)    
Max Wind Speed 21 mph    
Max Gust Speed 26 mph    
Visibility 10 miles    
Events Rain    
Averages and records for this station are not official NWS values.
T = Trace of Precipitation, MM = Missing Value Source: NWS Daily Summary

Daily Weather History Graph

Daily Weather History Graph

Search for Another Location

Airport:

Trip Planner

Search our weather history database for the weather conditions in past years. The results will help you decide how hot, cold, wet, or windy it might be!

Date:

Astronomy

Feb. 02, 2013 Rise Set
Actual Time 6:50 AM CST 5:17 PM CST
Civil Twilight 6:23 AM CST 5:44 PM CST
Nautical Twilight 5:52 AM CST 6:15 PM CST
Astronomical Twilight 5:22 AM CST 6:45 PM CST
Moon No Moon Rise 10:13 AM CST (2/2)
Length of Visible Light 11h 20m
Length of Day
10h 26m
Waning Gibbous, 59% of the Moon is Illuminated
Feb 2
Waning Gibbous
Feb 3
Last Quarter
Feb 10
New
Feb 17
First Quarter
Feb 25
Full

Hourly Weather History & Observations

Time (CST) Temp. Windchill Dew Point Humidity Pressure Visibility Wind Dir Wind Speed Gust Speed Precip Events Conditions
12:55 AM 25.0 °F 20.7 °F 16.0 °F 69% 30.34 in 10.0 mi SSE 3.5 mph - N/A   Overcast
1:55 AM 25.9 °F 19.2 °F 14.5 °F 62% 30.31 in 10.0 mi SSE 5.8 mph - N/A   Overcast
2:55 AM 26.4 °F - 13.8 °F 59% 30.32 in 10.0 mi Calm Calm - N/A   Overcast
3:55 AM 26.6 °F 21.2 °F 14.9 °F 61% 30.29 in 10.0 mi SSE 4.6 mph - N/A   Overcast
4:55 AM 27.1 °F 23.2 °F 15.3 °F 61% 30.29 in 10.0 mi SSW 3.5 mph - N/A   Partly Cloudy
5:55 AM 27.5 °F 20.2 °F 16.2 °F 62% 30.26 in 10.0 mi SSE 6.9 mph - N/A   Mostly Cloudy
6:43 AM 28.4 °F 22.2 °F 15.8 °F 59% 30.26 in 10.0 mi South 5.8 mph - N/A   Mostly Cloudy
6:45 AM 28.4 °F 21.2 °F 15.8 °F 59% 30.25 in 10.0 mi South 6.9 mph - N/A   Mostly Cloudy
6:50 AM 28.4 °F 20.4 °F 15.8 °F 59% 30.25 in 10.0 mi South 8.1 mph - N/A   Mostly Cloudy
6:55 AM 28.4 °F 21.2 °F 15.6 °F 59% 30.25 in 10.0 mi South 6.9 mph - N/A   Mostly Cloudy
6:58 AM 28.4 °F 20.4 °F 15.8 °F 59% 30.25 in 10.0 mi South 8.1 mph - N/A   Mostly Cloudy
7:00 AM 28.4 °F 20.4 °F 15.8 °F 59% 30.25 in 10.0 mi South 8.1 mph - N/A   Mostly Cloudy
7:02 AM 28.4 °F 20.4 °F 15.8 °F 59% 30.25 in 10.0 mi South 8.1 mph - N/A   Mostly Cloudy
7:04 AM 28.4 °F 20.4 °F 15.8 °F 59% 30.25 in 10.0 mi South 8.1 mph - N/A   Scattered Clouds
7:14 AM 28.4 °F 20.4 °F 17.6 °F 64% 30.24 in 10.0 mi South 8.1 mph - N/A   Mostly Cloudy
7:15 AM 28.4 °F 19.7 °F 17.6 °F 64% 30.24 in 10.0 mi South 9.2 mph - N/A   Mostly Cloudy
7:24 AM 28.4 °F 19.1 °F 19.4 °F 69% 30.23 in 10.0 mi South 10.4 mph - N/A   Partly Cloudy
7:55 AM 29.1 °F 20.6 °F 23.9 °F 81% 30.22 in 10.0 mi South 9.2 mph - 0.00 in   Overcast
8:55 AM 32.9 °F 25.3 °F 27.1 °F 79% 30.22 in 10.0 mi South 9.2 mph - N/A   Mostly Cloudy
9:55 AM 35.8 °F 26.9 °F 28.0 °F 73% 30.19 in 10.0 mi SSW 13.8 mph - N/A   Mostly Cloudy
10:55 AM 40.1 °F 32.7 °F 26.4 °F 58% 30.16 in 10.0 mi SW 12.7 mph - N/A   Overcast
11:55 AM 41.4 °F 34.0 °F 24.8 °F 52% 30.14 in 10.0 mi WSW 13.8 mph - N/A   Mostly Cloudy
12:55 PM 41.9 °F 34.3 °F 24.3 °F 50% 30.12 in 10.0 mi WSW 15.0 mph - N/A   Partly Cloudy
1:38 PM 41.0 °F 31.6 °F 26.6 °F 57% 30.11 in 10.0 mi WSW 20.7 mph 26.5 mph N/A Rain Light Rain
1:40 PM 41.0 °F 31.9 °F 28.4 °F 61% 30.11 in 10.0 mi WSW 19.6 mph 26.5 mph N/A   Mostly Cloudy
1:55 PM 37.9 °F 28.5 °F 32.7 °F 81% 30.11 in 10.0 mi SW 17.3 mph - 0.00 in   Light Drizzle
2:02 PM 37.4 °F 28.2 °F 33.8 °F 87% 30.10 in 10.0 mi SW 16.1 mph - N/A   Light Drizzle
2:07 PM 37.4 °F 27.8 °F 33.8 °F 87% 30.10 in 10.0 mi SW 17.3 mph - N/A   Overcast
2:25 PM 37.4 °F 29.3 °F 35.6 °F 93% 30.10 in 10.0 mi SW 12.7 mph - N/A   Overcast
2:55 PM 37.6 °F 30.0 °F 34.2 °F 87% 30.10 in 10.0 mi WSW 11.5 mph - 0.00 in   Overcast
3:55 PM 37.8 °F 29.0 °F 34.3 °F 87% 30.10 in 10.0 mi WSW 15.0 mph - N/A   Overcast
4:27 PM 37.4 °F 28.2 °F 33.8 °F 87% 30.10 in 10.0 mi WSW 16.1 mph - N/A   Mostly Cloudy
4:29 PM 37.4 °F 28.9 °F 33.8 °F 87% 30.10 in 10.0 mi WSW 13.8 mph - N/A   Mostly Cloudy
4:33 PM 37.4 °F 28.5 °F 33.8 °F 87% 30.10 in 10.0 mi WSW 15.0 mph - N/A   Mostly Cloudy
4:40 PM 37.4 °F 29.3 °F 33.8 °F 87% 30.09 in 10.0 mi West 12.7 mph - N/A   Scattered Clouds
4:55 PM 37.0 °F 29.8 °F 33.3 °F 86% 30.10 in 10.0 mi West 10.4 mph - N/A   Partly Cloudy
5:55 PM 34.7 °F 26.9 °F 32.0 °F 90% 30.13 in 10.0 mi WSW 10.4 mph - N/A   Clear
6:55 PM 34.2 °F 27.5 °F 33.8 °F 99% 30.15 in 10.0 mi SW 8.1 mph - N/A   Mostly Cloudy
7:55 PM 35.1 °F 30.1 °F 33.8 °F 95% 30.15 in 10.0 mi WSW 5.8 mph - N/A   Overcast
8:55 PM 34.9 °F 29.0 °F 32.9 °F 92% 30.14 in 10.0 mi WSW 6.9 mph - N/A   Overcast
9:55 PM 32.7 °F 26.4 °F 31.1 °F 94% 30.14 in 10.0 mi WSW 6.9 mph - N/A   Scattered Clouds
10:55 PM 32.7 °F 25.7 °F 32.0 °F 97% 30.13 in 10.0 mi WSW 8.1 mph - N/A   Overcast
11:55 PM 33.1 °F 26.1 °F 30.7 °F 91% 30.12 in 10.0 mi WSW 8.1 mph - N/A   Mostly Cloudy